#timestamp,LO_Frequency,Hit,StdDev 
1582981295.6,286047003.9,P
1582981315.5,286047004.1,P
1582981335.3,286047004.3,P
1582981355.2,286047001.3,Y
1582981375.9,286046997.0,P
1582981395.7,286046999.5,N
1582981415.6,286046996.6,N
1582981435.4,286046999.3,N
1582981455.2,286046998.7,N
1582981505.1,286047000.6,E
1582981515.0,286047000.6,N
1582981515.9,286047000.6,P
1582981535.8,286046998.6,P
1582981555.6,286046998.8,N
1582981575.4,286046999.4,N
1582981595.3,286046999.1,N
1582981615.1,286046996.5,Y
1582981635.9,286046998.9,P
1582981655.7,286046999.2,N
1582981675.5,286046997.2,P
1582981695.4,286046997.8,N
1582981715.2,286046997.6,N
1582981735.0,286046998.0,N
1582981735.9,286046998.0,N
1582981755.8,286046997.0,Y
1582981775.6,286046998.7,P
1582981795.5,286046999.0,P
1582981815.3,286046998.4,P
1582981835.1,286047001.2,Y
1582981855.9,286047002.6,P
1582981875.7,286047002.7,N
1582981895.6,286047002.4,N
1582981915.4,286047002.3,N
1582981935.2,286047000.0,N
1582981955.1,286046999.7,N
1582981956.0,286046999.7,N
1582981975.8,286047002.4,N
1582981995.7,286047002.1,N
1582982015.5,286046999.8,N
1582982035.3,286047002.7,N
1582982055.2,286047002.5,N
1582982075.0,286047001.4,N
1582982075.9,286047001.4,N
1582982095.7,286047002.2,N
1582982115.6,286047002.4,N
1582982135.4,286047000.2,N
1582982155.3,286047000.6,N
1582982175.1,286046999.8,N
1582982176.0,286046999.8,N
1582982195.8,286046999.9,N
1582982215.7,286047000.6,N
1582982235.5,286047000.6,N
1582982255.3,286047000.4,N
1582982275.2,286047000.2,N
1582982295.0,286047000.7,N
1582982295.9,286047000.7,N
1582982315.8,286047000.0,N
1582982335.6,286047000.9,N
1582982355.4,286047000.7,N
1582982375.3,286047001.1,N
1582982395.1,286046998.7,N
1582982415.9,286046998.2,N
1582982435.7,286047001.0,N
1582982455.5,286046998.9,N
1582982475.4,286046998.4,N
1582982495.2,286046999.6,N
1582982515.0,286046996.9,N
1582982515.9,286046996.9,N
1582982535.8,286046999.2,N
1582982555.6,286046997.1,N
1582982575.5,286046997.3,N
1582982595.3,286046999.5,N
1582982615.1,286046999.2,N
1582982635.9,286046998.9,N
1582982655.7,286046999.4,N
1582982675.5,286046999.2,N
1582982695.4,286046999.3,N
1582982715.2,286046998.7,N
1582982735.1,286046999.5,N
1582982736.0,286046999.5,N
1582982755.8,286046997.7,N
1582982775.6,286046996.5,N
1582982795.5,286046996.7,N
1582982815.3,286046996.9,N
1582982835.2,286046997.2,N
1582982855.9,286046996.7,N
1582982875.7,286046999.5,N
1582982895.6,286046997.1,N
1582982915.4,286046997.5,N
1582982935.2,286046997.1,N
1582982955.1,286046997.8,N
1582982956.0,286046997.8,N
1582982975.8,286046997.7,N
1582982995.7,286046994.9,Y
1582983015.5,286046996.7,P
1582983035.3,286046997.0,P
1582983055.2,286046996.9,P
1582983075.0,286046999.1,N
1582983075.9,286046999.1,N
1582983095.7,286046999.5,N
1582983115.6,286046999.6,N
1582983135.4,286046996.5,Y
1582983155.3,286047000.8,P
1582983175.1,286046998.3,N
1582983195.8,286047001.0,N
1582983215.7,286046998.1,N
1582983235.5,286046999.6,N
1582983255.3,286046997.3,N
1582983275.2,286046995.0,Y
1582983295.0,286046997.3,P
1582983295.9,286046997.3,P
1582983315.8,286046997.4,P
1582983335.6,286046996.6,Y
1582983355.4,286047000.7,P
1582983375.3,286046998.6,N
1582983395.1,286046998.3,N
1582983415.9,286046998.9,N
1582983435.7,286046996.5,Y
1582983455.5,286046998.2,P
1582983475.4,286047000.8,N
1582983495.2,286046998.5,N
1582983515.0,286047001.1,N
1582983515.9,286047001.1,N
1582983535.8,286047001.0,N
1582983555.6,286046998.8,N
1582983575.5,286047000.7,N
1582983595.3,286047001.1,N
1582983615.1,286046998.4,N
1582983635.9,286046998.4,N
1582983655.7,286046998.4,N
1582983675.5,286046998.4,N
1582983695.4,286046999.1,N
1582983715.2,286046999.3,N
1582983735.1,286046999.1,N
1582983736.0,286046999.1,N
1582983755.8,286046999.1,N
1582983775.6,286046999.0,N
1582983795.5,286046998.6,N
1582983815.3,286046999.8,N
1582983835.1,286047000.4,N
1582983855.9,286046998.7,N
1582983875.7,286046999.1,N
1582983895.6,286046996.6,Y
1582983915.4,286046998.9,P
1582983935.2,286046998.1,P
1582983955.1,286047000.8,N
1582983956.0,286047000.8,N
1582983975.8,286047000.5,N
1582983995.7,286047000.1,N
1582984015.5,286047000.9,N
1582984035